Location: Unspecified
(0.0000°N, 0.0000°E)
Time: 06:38:02
(UTC+00:00)

Vanguard 2 Rocket - Pass Details

Date: 05 October 2023
Orbit: 552 x 3312 km, 32.9° (Epoch: 06 December)

Event Time Altitude Azimuth Distance (km) Brightness Sun altitude
Rises 08:48:55 0° 289° (WNW) 4,818 10.2 44.9°
Reaches altitude 10° 08:53:05 10° 306° (NW) 4,287 10.1 45.9°
Maximum altitude 09:01:23 20° 349° (NNW) 4,300 10.4 48.0°
Drops below altitude 10° 09:12:28 10° 29° (NNE) 5,851 11.3 50.7°
Sets 09:19:57 0° 44° (NE) 7,175 11.8 52.6°
